"Pseudo-MPEC" for 6D93921

Created 2026 Apr 14 6:35:03 UT using Find_Orb

Click here for an explanation of pseudo-MPECs

 
 Astrometry: 
     6D93921*KC2026 04 10.14446 12 04 46.04 -22 27 05.8    ~4A4o 19.4 GVNEOCPW94
     6D93921 KC2026 04 10.15069 12 04 51.46 -22 25 24.0    ~4A4o 19.7 GVNEOCPW94
     6D93921 KC2026 04 10.15690 12 04 56.80 -22 23 43.1    ~4A4o 19.1 GVNEOCPW94
     6D93921 4C2026 04 10.19574 12 05 29.78 -22 13 16.3    ~4A6Zx19.9 VqNEOCPW97
     6D93921 4C2026 04 10.20158 12 05 34.67 -22 11 45.2    ~4A6Zx19.9 VqNEOCPW97
     6D93921 4C2026 04 10.20743 12 05 39.59 -22 10 12.8    ~4A6Zx20.7 VqNEOCPW97
     6D93921 1C2026 04 10.23100412 06 16.679-22 09 50.22   ~4A5o 19.28GVNEOCPI52
     6D93921 1C2026 04 10.23142812 06 16.956-22 09 44.14   ~4A5o 19.67GVNEOCPI52
     6D93921 1C2026 04 10.23185512 06 17.327-22 09 37.12   ~4A5o 20.21GVNEOCPI52
     6D93921 1C2026 04 10.23228212 06 17.636-22 09 30.92   ~4A5o 19.46GVNEOCPI52
     6D93921 1C2026 04 11.24590012 15 59.910-19 29 32.30   ~4B7Z 20.1 RVNEOCP691
     6D93921 1C2026 04 11.25433012 16 02.110-19 28 43.40   ~4B7Z 20.7 RVNEOCP691
     6D93921 1C2026 04 11.26275012 16 04.310-19 27 53.80   ~4B7Z 20.6 RVNEOCP691
     6D93921 1C2026 04 11.83311712 18 53.332-18 41 50.73   ~4BKox21.1 GWNEOCP246
     6D93921 1C2026 04 11.83898712 18 54.628-18 41 27.79   ~4BKox20.7 GWNEOCP246
     6D93921 1C2026 04 11.83951112 18 54.605-18 41 26.03   ~4BKo 20.6 GWNEOCP246
     6D93921 1C2026 04 11.84029812 18 54.933-18 41 22.15   ~4BKox20.8 GWNEOCP246
     6D93921 |C2026 04 11.97707012 19 31.940-18 28 36.50   ~4C0K 21.6 GVNEOCP807
     6D93921 |C2026 04 11.98253012 19 32.900-18 28 18.00   ~4C0K 21.4 GVNEOCP807
     6D93921 |C2026 04 11.98799012 19 33.930-18 28 00.10   ~4C0K 21.9 GVNEOCP807
     6D93921 1C2026 04 12.23920812 20 16.490-18 17 04.80   ~4C6K       VNEOCPI52
     6D93921 1C2026 04 12.24384512 20 17.070-18 16 49.50   ~4C6K       VNEOCPI52
     6D93921 |C2026 04 13.00676612 22 21.860-17 40 13.60   ~4D15 22.2 GVNEOCP807
     6D93921 |C2026 04 13.01587012 22 22.640-17 39 56.00   ~4D15 22.2 GVNEOCP807
     6D93921 |C2026 04 13.02497012 22 23.490-17 39 37.30   ~4D15 21.6 GVNEOCP807
     6D93921 |C2026 04 14.04243012 24 09.180-17 09 30.80   ~4E2K 22.3 GVNEOCP807
     6D93921 |C2026 04 14.05700012 24 09.930-17 09 11.40   ~4E2K 22.4 GVNEOCP807
     6D93921 |C2026 04 14.07156012 24 10.620-17 08 51.30   ~4E2K 22.0 GVNEOCP807

Station data:
(246) Klet Observatory-KLENOT  (N48.863991 E14.284760)  Czech Republic.
   Observer J. Ticha. Measurer M. Tichy. 1.06-m f/2.7 reflector + 2048x2048
   CCD.
(691) Steward Observatory, Kitt Peak - Spacewatch  (N31.962174 W111.600327)
   US/Arizona.  Observer J. V. Scotti. 0.9-m f/3 reflector + CCD.
(807) Cerro Tololo Observatory, La Serena  (S30.169133 W70.805900)  Chile.
   Observer R. Holmes. 0.61-m f/6.5 astrograph + CCD.
(I52) Steward Observatory, Mt. Lemmon Station  (N32.442570 W110.788920)
   US/Arizona. Measurers T. Beuden, V. F. Carvajal, D. Fay, J. B. Fazekas, D.
   C. Fuls, A. R. Gibbs, A. D. Grauer, H. Gröller, J. K. Hogan, R. A.
   Kowalski, S. M. Larson, G. J. Leonard, D. Rankin, R. L. Seaman, F. C.
   Shelly, K. W. Wierzchoś. 1.0-m prime focus + CCD.
(W94) AMACS1, San Pedro de Atacama  (S22.953074 W68.179810)  Chile.  Observers
   A. Maury, G. Attard. Measurers A. Maury, G. Attard, D. Parrott. 0.28-m
   f/2.2 Schmidt + CCD.
(W97) Atacama Desert Observatory, San Pedro de Atacama  (S22.953413
   W68.179760)  Chile.

Orbital elements:  6D93921
   Perihelion 2026 Feb 21.158821 +/- 0.0285 TT =  3:48:42.1 (JD 2461092.658821)
Epoch 2026 Apr 14.0 TT = JDT 2461144.5   Earth MOID: 0.0035   Ve: 0.0047
M  17.872991894 +/- 0.07            Ma: 0.0826                   AutoNEOCP
n   0.344764381 +/- 0.0013          Peri.   82.429457 +/- 0.0018
a   2.014285941 +/- 0.00504         Node    17.055444 +/- 0.00037
e   0.74866421 +/- 0.000768         Incl.    8.771900 +/- 0.009
P   2.85879                H 27.15  G  0.15   U  8.3
q 0.506262137 +/- 0.000278    Q 3.522309744 +/- 0.0104    (J2000 ecliptic)
22 of 28 observations 2026 Apr. 10-14; mean residual 0".44
Residuals in arcseconds: 
260410 W94  .67+  .78+    260411 691  .12-  .56+    260412 I52  .06+  1.1-    
260410 W94  .25+  .18+    260411 691  .34-  .26-    260412 I52  .21+  .46-    
260410 W94  .45-  .45-    260411 691  .27-  .20-    260413 807  .70+  .18+    
260410 W97( .69+  3.6+)   260411 246( .91-  1.9+)   260413 807  .29-  .35-    
260410 W97( 1.4+  2.8+)   260411 246( 2.0+  1.8+)   260413 807  .09+  .20+    
260410 W97( 2.6+  3.7+)   260411 246  .28+  1.5+    260414 807  .22-  .09-    
260410 I52  .39+  .36-    260411 246( 2.9+  2.3+)   260414 807  .06+  .22-    
260410 I52  .42-  .59-    260411 807  .07-  .12-    260414 807  .02+  .25+    
260410 I52  .04+  .07+    260411 807  .57-  .06+    
260410 I52  .35-  .08-    260411 807  .15+  .34-    

Ephemerides (geocentric):
Date (UTC) HH   RA             Dec           delta  r     elong  mag " sig PA
---- --------  ------------   ------------  ------ ------ -----  --- --------
2026 04 14 07  12 24 25.442   -17 04 13.98  .07761 1.0772 162.5 22.6 .161  73
2026 04 14 08  12 24 28.760   -17 03 18.33  .07818 1.0778 162.5 22.7 .163  72
2026 04 14 09  12 24 32.035   -17 02 23.45  .07874 1.0783 162.5 22.7 .164  72
2026 04 14 10  12 24 35.267   -17 01 29.32  .07931 1.0789 162.5 22.7 .166  72
2026 04 14 11  12 24 38.457   -17 00 35.92  .07988 1.0794 162.5 22.7 .168  71
2026 04 14 12  12 24 41.606   -16 59 43.24  .08045 1.0800 162.5 22.7 .169  71
2026 04 14 13  12 24 44.716   -16 58 51.25  .08102 1.0805 162.5 22.7 .171  71
2026 04 14 14  12 24 47.787   -16 57 59.96  .08158 1.0811 162.5 22.8 .173  70
2026 04 14 15  12 24 50.819   -16 57 09.34  .08215 1.0816 162.4 22.8 .174  70
2026 04 14 16  12 24 53.815   -16 56 19.37  .08272 1.0822 162.4 22.8 .176  70
2026 04 14 17  12 24 56.773   -16 55 30.06  .08329 1.0827 162.4 22.8 .177  69
2026 04 14 18  12 24 59.696   -16 54 41.37  .08386 1.0833 162.4 22.8 .179  69
2026 04 14 19  12 25 02.585   -16 53 53.31  .08443 1.0839 162.4 22.8 .180  69
2026 04 14 20  12 25 05.439   -16 53 05.85  .08499 1.0844 162.4 22.9 .181  69
2026 04 14 21  12 25 08.259   -16 52 18.99  .08556 1.0850 162.4 22.9 .183  68
2026 04 14 22  12 25 11.047   -16 51 32.72  .08613 1.0855 162.4 22.9 .184  68
2026 04 14 23  12 25 13.802   -16 50 47.01  .08670 1.0861 162.4 22.9 .186  68
2026 04 15 00  12 25 16.526   -16 50 01.87  .08727 1.0866 162.3 22.9 .187  68
2026 04 15 01  12 25 19.220   -16 49 17.28  .08784 1.0872 162.3 22.9 .188  67
2026 04 15 02  12 25 21.883   -16 48 33.23  .08841 1.0877 162.3 22.9 .190  67
2026 04 15 03  12 25 24.517   -16 47 49.71  .08898 1.0883 162.3 23.0 .191  67
2026 04 15 04  12 25 27.122   -16 47 06.71  .08955 1.0888 162.3 23.0 .192  67
2026 04 15 05  12 25 29.698   -16 46 24.22  .09012 1.0894 162.3 23.0 .194  66
2026 04 15 06  12 25 32.247   -16 45 42.23  .09068 1.0899 162.3 23.0 .195  66
2026 04 15 07  12 25 34.769   -16 45 00.74  .09125 1.0905 162.2 23.0 .196  66
2026 04 15 08  12 25 37.264   -16 44 19.72  .09182 1.0910 162.2 23.0 .197  66
2026 04 15 09  12 25 39.732   -16 43 39.18  .09239 1.0916 162.2 23.0 .198  66
2026 04 15 10  12 25 42.175   -16 42 59.10  .09296 1.0921 162.2 23.1 .200  65
2026 04 15 11  12 25 44.594   -16 42 19.49  .09353 1.0927 162.2 23.1 .201  65
2026 04 15 12  12 25 46.987   -16 41 40.32  .09410 1.0932 162.2 23.1 .202  65
2026 04 15 13  12 25 49.356   -16 41 01.59  .09467 1.0938 162.2 23.1 .203  65
2026 04 15 14  12 25 51.702   -16 40 23.29  .09524 1.0943 162.1 23.1 .204  65
2026 04 15 15  12 25 54.025   -16 39 45.42  .09581 1.0949 162.1 23.1 .205  65
2026 04 15 16  12 25 56.324   -16 39 07.96  .09638 1.0954 162.1 23.2 .206  64
2026 04 15 17  12 25 58.602   -16 38 30.92  .09695 1.0960 162.1 23.2 .207  64
2026 04 15 18  12 26 00.858   -16 37 54.28  .09752 1.0965 162.1 23.2 .208  64
2026 04 15 19  12 26 03.092   -16 37 18.04  .09809 1.0971 162.1 23.2 .209  64
2026 04 15 20  12 26 05.305   -16 36 42.18  .09866 1.0977 162.0 23.2 .210  64
2026 04 15 21  12 26 07.497   -16 36 06.71  .09923 1.0982 162.0 23.2 .211  64
2026 04 15 22  12 26 09.669   -16 35 31.62  .09981 1.0988 162.0 23.2 .212  64
2026 04 15 23  12 26 11.822   -16 34 56.89  .10038 1.0993 162.0 23.2 .213  63
2026 04 16 00  12 26 13.954   -16 34 22.53  .10095 1.0999 162.0 23.3 .214  63
2026 04 16 01  12 26 16.068   -16 33 48.53  .10152 1.1004 162.0 23.3 .214  63
2026 04 16 02  12 26 18.163   -16 33 14.88  .10209 1.1010 161.9 23.3 .215  63
2026 04 16 03  12 26 20.239   -16 32 41.57  .10266 1.1015 161.9 23.3 .216  63
2026 04 16 04  12 26 22.297   -16 32 08.61  .10323 1.1021 161.9 23.3 .217  63
2026 04 16 05  12 26 24.338   -16 31 35.98  .10380 1.1026 161.9 23.3 .218  63
2026 04 16 06  12 26 26.361   -16 31 03.68  .10437 1.1032 161.9 23.3 .218  62